This is the latest recevied weather packets stored in our database for station/object KD4MBW. If no packets are shown the sender has not sent any weather packets the latest 10 day(s).
| Time | Temp. | Humidity | Pressure | Rain* | Wind** | Luminosity | Snow |
|---|---|---|---|---|---|---|---|
| 1787709644 | 27.78° C | 92% | 1015.7 hPa | 0 mm | - | 0 W/m² | - |
| 1787709340 | 27.78° C | 92% | 1015.7 hPa | 0 mm | - | 0 W/m² | - |
| 1787709036 | 27.78° C | 92% | 1015.9 hPa | 0 mm | - | 0 W/m² | - |
| 1787708732 | 28.33° C | 91% | 1016 hPa | 0 mm | - | 0 W/m² | - |
| 1787708425 | 28.33° C | 91% | 1016.1 hPa | 0 mm | - | 0 W/m² | - |
| 1787708121 | 28.33° C | 91% | 1015.8 hPa | 0 mm | - | 0 W/m² | - |
| 1787707817 | 28.33° C | 91% | 1015.7 hPa | 0 mm | - | 0 W/m² | - |
| 1787707517 | 28.33° C | 91% | 1015.5 hPa | 0 mm | - | 0 W/m² | - |
| 1787707212 | 28.33° C | 91% | 1015.6 hPa | 0 mm | - | 0 W/m² | - |
| 1787706909 | 28.33° C | 90% | 1015.5 hPa | 0 mm | - | 0 W/m² | - |
| 1787706608 | 28.89° C | 89% | 1015.6 hPa | 0 mm | - | 0 W/m² | - |
| 1787706303 | 28.89° C | 89% | 1015.3 hPa | 0 mm | - | 0 W/m² | - |
| 1787706002 | 28.89° C | 88% | 1015.3 hPa | 0 mm | - | 0 W/m² | - |
| 1787705698 | 28.89° C | 87% | 1015.5 hPa | 0 mm | - | 0 W/m² | - |
| 1787705388 | 29.44° C | 87% | 1015.4 hPa | 0 mm | - | 0 W/m² | - |
| 1787705083 | 29.44° C | 86% | 1015.3 hPa | 0 mm | - | 0 W/m² | - |
| 1787704779 | 29.44° C | 86% | 1015.2 hPa | 0 mm | - | 0 W/m² | - |
| 1787704475 | 29.44° C | 85% | 1015.6 hPa | 0 mm | - | 0 W/m² | - |
| 1787704170 | 29.44° C | 85% | 1015.6 hPa | 0 mm | - | 0 W/m² | - |
| 1787703870 | 29.44° C | 86% | 1015.5 hPa | 0 mm | - | 0 W/m² | - |
| 1787703565 | 29.44° C | 87% | 1015.2 hPa | 0 mm | - | 2 W/m² | - |
| 1787703264 | 29.44° C | 86% | 1015.1 hPa | 0 mm | - | 8 W/m² | - |
| 1787702960 | 29.44° C | 86% | 1015 hPa | 0 mm | - | 16 W/m² | - |
| 1787702650 | 29.44° C | 85% | 1015.2 hPa | 0 mm | - | 26 W/m² | - |
| 1787702344 | 29.44° C | 84% | 1015.2 hPa | 0 mm | - | 37 W/m² | - |
* Rain latest hour (hover to see other rain measurements)
** Current wind speed in m/s (hover to see current wind gust speed)